Weather in Camagüey

Cuba     21°22′59″N   77°54′51″W
temp.,
°C
wind,
m/s
gust,
m/s
humid.,
%
clouds,
%
prec.,
mm/h
press.,
hPa
HPBL,
m
8 may, sat
sat823:00+23ne248836 10.9 1017128
02:00+22ene22897 10.9 101639
05:00+21e22900 0.0 101538
08:00+23ene34830 0.0 1017194
11:00+30e33470 0.0 10171372
14:00+35ese23292 0.0 10152856
17:00+30ne674334 0.2 1014797
20:00+25ne59690 0.4 1016494
9 may, sun
sun923:00+23e5108953 1.4 1018406
02:00+22ene39906 1.4 1017287
05:00+21ene39910 0.0 1016216
08:00+24e49820 0.0 1018491
11:00+31ese56450 0.0 10181950
14:00+35e552917 0.0 10153065
17:00+32ne97380 0.0 10141469
20:00+26ene69610 0.0 1017579
10 may, mon
mon1023:00+24ene511840 0.0 1018595
02:00+23ene512870 0.0 1016563
05:00+23e511890 0.0 1016540
08:00+25e510780 0.0 1017715
11:00+32ese56410 0.0 10171758
14:00+36e44276 0.0 10142990
17:00+32ne664481 0.0 10131201
20:00+25e587847 3.2 1017256
11 may, tue
tue1123:00+24ne489029 1.5 1017249
02:00+23ene49942 3.3 1016290
05:00+23ene49940 0.0 1015312
08:00+25e48870 0.0 1017476
11:00+31ese55520 0.0 10161402
14:00+35s543556 0.0 10152747
17:00+27ne577152 1.1 1015339
20:00+25ne47848 3.9 1016183
12 may, wed
wed1223:00+23ene389216 3.2 1018181
02:00+23ene38932 3.2 1016202
05:00+22ene379717 1.1 1015187
08:00+24e478834 1.8 1017331
11:00+30e44573 0.0 10171160
14:00+34ese344176 0.2 10152449
17:00+31ene655090 0.1 10141327
20:00+26ene597310 0.6 1016408